Change the Weather History Date:

Tuesday, January 1, 2013

  Actual Average (KCIU) Record (KCIU)
Temperature  
Mean Temperature 10 °F -  
Max Temperature 23 °F 26 °F 41 °F (2007)
Min Temperature -4 °F 9 °F -23 °F (1999)
Degree Days  
Heating Degree Days 56    
Moisture  
Dew Point 5 °F    
Average Humidity 73    
Maximum Humidity 92    
Minimum Humidity 58    
Precipitation  
Precipitation 0.00 in - - ()
Sea Level Pressure  
Sea Level Pressure 29.99 in    
Wind  
Wind Speed 5 mph (West)    
Max Wind Speed 10 mph    
Max Gust Speed 22 mph    
Visibility 10 miles    
Events Snow    
Averages and records for this station are not official NWS values.
T = Trace of Precipitation, MM = Missing Value Source: NWS Daily Summary

Daily Weather History Graph

Daily Weather History Graph

Search for Another Location

Airport or City:

Trip Planner

Search our weather history database for the weather conditions in past years. The results will help you decide how hot, cold, wet, or windy it might be!

Date:

Astronomy

Jan. 01, 2013 Rise Set
Actual Time 8:16 AM EST 5:00 PM EST
Civil Twilight 7:42 AM EST 5:35 PM EST
Nautical Twilight 7:04 AM EST 6:12 PM EST
Astronomical Twilight 6:28 AM EST 6:49 PM EST
Moon 9:46 PM EST (1/1) 10:14 AM EST (1/1)
Length of Visible Light 9h 52m
Length of Day
8h 43m
Waning Gibbous, 83% of the Moon is Illuminated
Jan 1
Waning Gibbous
Jan 4
Last Quarter
Jan 11
New
Jan 18
First Quarter
Jan 26
Full

Hourly Weather History & Observations

Time (EST) Temp. Windchill Dew Point Humidity Pressure Visibility Wind Dir Wind Speed Gust Speed Precip Events Conditions
12:15 AM 12.7 °F 0.4 °F 3.2 °F 66% 30.00 in 10.0 mi NNW 9.2 mph 16.1 mph N/A   Mostly Cloudy
12:35 AM 11.7 °F 0.0 °F 2.8 °F 68% 30.00 in 10.0 mi NNW 8.1 mph - N/A   Scattered Clouds
12:56 AM 11.1 °F 0.4 °F 2.8 °F 69% 30.00 in 10.0 mi NNW 6.9 mph - N/A   Clear
1:15 AM 10.4 °F -1.5 °F 2.7 °F 71% 30.00 in 10.0 mi NNW 8.1 mph - N/A   Clear
1:35 AM 10.0 °F 0.4 °F 2.1 °F 70% 30.00 in 10.0 mi NNW 5.8 mph - N/A   Clear
1:55 AM 9.3 °F -0.5 °F 2.5 °F 74% 30.00 in 10.0 mi NNW 5.8 mph - N/A   Clear
2:15 AM 9.0 °F -2.2 °F 2.8 °F 76% 30.01 in 10.0 mi North 6.9 mph - N/A   Clear
2:36 AM 8.4 °F -1.6 °F 2.1 °F 76% 30.02 in 10.0 mi North 5.8 mph - N/A   Clear
3:15 AM 7.2 °F - 1.0 °F 76% 30.04 in 10.0 mi Calm Calm - N/A   Clear
3:35 AM 5.5 °F - 0.5 °F 80% 30.04 in 10.0 mi Calm Calm - N/A   Clear
3:55 AM 5.5 °F - 1.0 °F 82% 30.05 in 10.0 mi Calm Calm - N/A   Clear
4:15 AM 4.8 °F - 0.1 °F 81% 30.04 in 10.0 mi Calm Calm - N/A   Clear
4:35 AM 2.3 °F - -0.8 °F 87% 30.05 in 10.0 mi Calm Calm - N/A   Clear
4:55 AM 0.5 °F - -2.0 °F 89% 30.05 in 10.0 mi Calm Calm - N/A   Clear
5:15 AM 0.5 °F - -1.3 °F 92% 30.05 in 10.0 mi Calm Calm - N/A   Clear
5:35 AM -0.0 °F - -2.2 °F 91% 30.06 in 10.0 mi Calm Calm - N/A   Clear
5:55 AM -1.5 °F - -4.0 °F 89% 30.06 in 10.0 mi Calm Calm - N/A   Clear
6:16 AM -1.8 °F - -4.2 °F 90% 30.07 in 10.0 mi Calm Calm - N/A   Clear
6:35 AM 0.3 °F - -1.8 °F 91% 30.07 in 10.0 mi Calm Calm - N/A   Clear
6:55 AM -1.5 °F - -3.8 °F 90% 30.07 in 10.0 mi Calm Calm - N/A   Clear
7:15 AM -1.7 °F - -4.2 °F 89% 30.07 in 10.0 mi Calm Calm - N/A   Clear
7:35 AM -2.0 °F - -4.9 °F 88% 30.08 in 10.0 mi Calm Calm - N/A   Clear
7:55 AM -4.5 °F - -7.4 °F 87% 30.07 in 10.0 mi Calm Calm - N/A   Clear
8:15 AM -4.5 °F - -7.8 °F 86% 30.07 in 10.0 mi Calm Calm - N/A   Clear
8:35 AM -4.2 °F - -7.1 °F 87% 30.07 in 10.0 mi Calm Calm - N/A   Clear
8:55 AM -3.5 °F - -6.5 °F 87% 30.06 in 10.0 mi Calm Calm - N/A   Clear
9:15 AM -3.5 °F - -6.5 °F 87% 30.06 in 10.0 mi Calm Calm - N/A   Scattered Clouds
9:35 AM 0.1 °F - -2.7 °F 88% 30.06 in 10.0 mi Calm Calm - N/A   Mostly Cloudy
10:15 AM 8.8 °F - 5.5 °F 87% 30.06 in 10.0 mi Calm Calm - N/A   Overcast
10:35 AM 12.7 °F - 5.9 °F 74% 30.07 in 10.0 mi Calm Calm - N/A   Overcast
10:55 AM 12.2 °F - 5.7 °F 75% 30.06 in 10.0 mi Calm Calm - N/A   Overcast
11:15 AM 13.8 °F - 7.3 °F 75% 30.05 in 10.0 mi Calm Calm - N/A   Scattered Clouds
11:35 AM 17.8 °F 12.5 °F 10.8 °F 74% 30.04 in 10.0 mi SW 3.5 mph - N/A   Mostly Cloudy
12:16 PM 20.8 °F 12.1 °F 13.1 °F 72% 30.02 in 10.0 mi WNW 6.9 mph - N/A   Overcast
12:35 PM 21.7 °F 15.5 °F 13.1 °F 69% 30.00 in 10.0 mi West 4.6 mph - N/A   Overcast
12:55 PM 22.3 °F 12.2 °F 11.3 °F 63% 29.99 in 10.0 mi WSW 9.2 mph 21.9 mph N/A   Overcast
1:15 PM 22.6 °F 12.6 °F 11.5 °F 62% 29.98 in 10.0 mi WSW 9.2 mph - N/A   Overcast
1:35 PM 22.6 °F 11.9 °F 11.3 °F 62% 29.97 in 10.0 mi WSW 10.4 mph 16.1 mph N/A   Overcast
1:56 PM 22.8 °F 12.2 °F 11.3 °F 61% 29.96 in 10.0 mi WSW 10.4 mph 18.4 mph N/A   Overcast
2:15 PM 22.8 °F 12.9 °F 11.1 °F 61% 29.95 in 10.0 mi WSW 9.2 mph - N/A   Overcast
2:35 PM 23.0 °F 13.9 °F 11.5 °F 61% 29.95 in 10.0 mi West 8.1 mph - N/A   Overcast
2:56 PM 23.9 °F 15.0 °F 11.1 °F 58% 29.94 in 10.0 mi West 8.1 mph 16.1 mph N/A   Overcast
3:15 PM 23.2 °F 15.0 °F 10.6 °F 59% 29.94 in 10.0 mi WSW 6.9 mph 17.3 mph N/A   Scattered Clouds
3:35 PM 22.8 °F 12.2 °F 10.4 °F 59% 29.95 in 10.0 mi WSW 10.4 mph 19.6 mph N/A   Clear
3:55 PM 21.9 °F 12.5 °F 10.8 °F 62% 29.95 in 10.0 mi WSW 8.1 mph - N/A   Clear
4:15 PM 21.2 °F 13.6 °F 10.9 °F 65% 29.95 in 10.0 mi WSW 5.8 mph - N/A   Scattered Clouds
4:35 PM 20.3 °F 12.5 °F 10.9 °F 67% 29.95 in 10.0 mi West 5.8 mph - N/A   Scattered Clouds
4:55 PM 20.3 °F 15.4 °F 10.9 °F 67% 29.96 in 10.0 mi West 3.5 mph - N/A   Mostly Cloudy
5:15 PM 19.4 °F 11.5 °F 10.2 °F 68% 29.96 in 10.0 mi West 5.8 mph - N/A   Scattered Clouds
5:36 PM 19.9 °F 13.4 °F 10.4 °F 67% 29.96 in 10.0 mi West 4.6 mph - N/A   Mostly Cloudy
5:55 PM 20.3 °F 13.8 °F 11.3 °F 68% 29.96 in 10.0 mi West 4.6 mph - N/A   Overcast
6:15 PM 20.7 °F 11.9 °F 12.0 °F 69% 29.95 in 10.0 mi West 6.9 mph - N/A   Overcast
6:36 PM 20.8 °F 13.2 °F 12.6 °F 70% 29.95 in 10.0 mi WNW 5.8 mph - N/A Snow Light Snow
6:55 PM 20.8 °F 12.1 °F 13.1 °F 72% 29.95 in 10.0 mi WNW 6.9 mph - N/A   Overcast
7:15 PM 20.8 °F 10.4 °F 13.1 °F 72% 29.95 in 10.0 mi WNW 9.2 mph - N/A   Overcast
7:36 PM 20.3 °F 13.8 °F 12.7 °F 73% 29.95 in 10.0 mi WNW 4.6 mph - N/A Snow Light Snow
7:55 PM 19.9 °F 10.1 °F 12.2 °F 72% 29.95 in 10.0 mi WNW 8.1 mph - N/A   Overcast
8:15 PM 19.4 °F 9.5 °F 12.0 °F 73% 29.94 in 10.0 mi West 8.1 mph - N/A   Mostly Cloudy
8:35 PM 20.1 °F 11.3 °F 11.8 °F 70% 29.94 in 10.0 mi West 6.9 mph 17.3 mph N/A   Mostly Cloudy
8:55 PM 20.3 °F 9.8 °F 10.0 °F 65% 29.93 in 10.0 mi West 9.2 mph - N/A   Mostly Cloudy
9:15 PM 19.8 °F 11.9 °F 9.3 °F 64% 29.93 in 10.0 mi West 5.8 mph - N/A   Scattered Clouds
9:35 PM 19.9 °F 12.1 °F 9.1 °F 63% 29.93 in 10.0 mi West 5.8 mph - N/A   Mostly Cloudy
9:55 PM 19.4 °F 9.5 °F 8.6 °F 63% 29.92 in 10.0 mi West 8.1 mph - N/A   Mostly Cloudy
10:15 PM 19.0 °F 12.3 °F 8.1 °F 62% 29.92 in 10.0 mi WSW 4.6 mph - N/A   Clear
10:35 PM 18.7 °F 10.6 °F 7.9 °F 63% 29.91 in 10.0 mi West 5.8 mph - N/A   Clear
10:56 PM 18.3 °F 10.2 °F 8.4 °F 65% 29.91 in 10.0 mi WSW 5.8 mph - N/A   Mostly Cloudy
11:15 PM 17.8 °F 8.5 °F 7.7 °F 65% 29.92 in 10.0 mi WSW 6.9 mph - N/A   Scattered Clouds
11:35 PM 17.4 °F 10.4 °F 8.4 °F 68% 29.92 in 10.0 mi WSW 4.6 mph - N/A   Clear
11:56 PM 17.4 °F 10.4 °F 8.2 °F 67% 29.92 in 10.0 mi West 4.6 mph - N/A   Clear